Current Version              Previous Version:    01  02  03  04  05  06  07  08  09  10  11  12  13  14  15  16  17  18  19  20  21  22  23  24  25  26  27  28  29  30  
   31  32  33  34  35  36  37  38  39  40  41  42  43  44  45  46  47  48  49  50  51  52  53  54  55  56  57  58  59  60  

[Printable]
728
ASUS44 KFWD 171510
RWRTX
NORTH TEXAS HOURLY WEATHER ROUNDUP
NATIONAL WEATHER SERVICE FORT WORTH TX
1000 AM CDT WED SEP 17 2014

NOTE: "FAIR" INDICATES FEW OR NO CLOUDS BELOW 12,000 FEET WITH NO
SIGNIFICANT WEATHER AND/OR OBSTRUCTIONS TO VISIBILITY.

TXZ118-119-171600-
DALLAS/FORT WORTH METROPLEX

CITY           SKY/WX    TMP DP  RH WIND       PRES   REMARKS
DFW AIRPORT    PTSUNNY   82  70  66 S7        29.97S
DALLAS LOVE    PTSUNNY   82  71  69 VRB5      29.97S
FTW MEACHAM    PTSUNNY   80  71  74 S6        29.97S
DAL-EXECUTIVE  PTSUNNY   81  71  71 VRB5      29.98R
FTW-ALLIANCE   PTSUNNY   82  70  66 S6        29.97S
FTW-NAS-JRB    PTSUNNY   83  70  64 SE6       30.02S
FTW-SPINKS     SUNNY     81  72  74 S5        30.00S
ARLINGTON      CLOUDY    78  71  79 S5        29.98S
GRAND PRAIRIE  SUNNY     79  70  73 MISG      30.00R
ADDISON        PTSUNNY   81  70  69 SW8       29.99R
MESQUITE       SUNNY     79  72  78 SE3       29.98S
LANCASTER      PTSUNNY   79  70  75 S6        29.99S
$$

TXZ091>094-102>105-117-120-121-131>134-171600-
NORTH CENTRAL TEXAS

CITY           SKY/WX    TMP DP  RH WIND       PRES   REMARKS
SHRMAN/DENISON PTSUNNY   80  71  74 SW5       30.00R
GAINESVILLE    CLOUDY    80  72  77 S6        30.00R
BOWIE          PTSUNNY   78  72  82 S5        30.00R
BRIDGEPORT     MOSUNNY   82  69  65 SW3       30.00S
DECATUR        MOSUNNY   80  69  69 SW7       29.99S
DENTON         PTSUNNY   82  70  66 SW8       29.97S
MCKINNEY       PTSUNNY   80  72  76 S7        29.98S
GREENVILLE     PTSUNNY   81  70  69 S3        29.99R
ROCKWALL       MOSUNNY   79  73  80 S5        29.97S
TERRELL        HAZE      82  73  74 S6        29.98S VSB 3/4
WAXAHACHIE     PTSUNNY   78  71  78 S3        29.99F
CLEBURNE       MOSUNNY   79  73  83 S6        30.01R
GRANBURY       PTSUNNY   81  71  70 SE3       30.00R
$$

TXZ083>090-098>101-113>116-127>130-139>142-154-155-171600-
WESTERN NORTH TEXAS

CITY           SKY/WX    TMP DP  RH WIND       PRES   REMARKS
WICHITA FALLS  PTSUNNY   80  70  71 SW5       29.97R
WF-KICKAPOO    PTSUNNY   81  69  66 W7        29.99R
VERNON         CLOUDY    80  68  67 SW3       30.00R
ABILENE        PTSUNNY   80  69  69 SW7       30.03R
ABILENE-DYESS  PTSUNNY   81  68  64 SW6       30.01F
BRECKENRIDGE   CLOUDY    81  69  67 MISG      29.99S HAZE
GRAHAM         CLOUDY    82  69  65 S3        29.98S
MINERAL WELLS  PTSUNNY   80  70  71 E5        29.98S
STEPHENVILLE   CLOUDY    76  69  79 S3        30.03S
COMANCHE         N/A     76  70  83 CALM      30.02S
BROWNWOOD      PTSUNNY   77  72  83 S5        30.02S
COLEMAN        PTSUNNY   76  70  80 CALM      30.03S
BRADY            N/A     79  73  83 CALM      30.03R
$$

TXZ143>147-156>162-174-175-171600-
CENTRAL TEXAS

CITY           SKY/WX    TMP DP  RH WIND       PRES   REMARKS
WACO           CLOUDY    77  72  84 S6        29.99R
WACO-TSTC      CLOUDY    77  73  88 S5        29.98S
WACO-MCGREGOR  CLOUDY    77  70  78 CALM      30.00S
HILLSBORO      PTSUNNY   79  73  81 S6        29.99S
CORSICANA      CLOUDY    79  71  76 VRB7      30.00R
MEXIA          CLOUDY    76  73  90 SW6       29.98S
HEARNE           N/A     77  74  91 CALM      29.99S
CAMERON        CLOUDY    78  75  90 CALM      29.98S
TEMPLE         CLOUDY    79  70  73 SW3       29.99R
KILLEEN        CLOUDY    79  73  83 S3        30.00R
KILLEEN-SKYLRK CLOUDY    77  70  78 W3        30.00R
FORT HOOD      CLOUDY    79  73  82 CALM      30.00S
GATESVILLE     PTSUNNY   79  72  78 CALM      30.02S
HAMILTON       CLOUDY    76  72  87 SW5       30.02S
LAMPASAS       CLOUDY    77  73  89 CALM      30.00S
$$

TXZ095>097-106>112-122>126-135>138-148>153-164>167-171600-
EAST TEXAS

CITY           SKY/WX    TMP DP  RH WIND       PRES   REMARKS
PARIS          PTSUNNY   77  68  73 CALM      30.00R
SULPHUR SPRNGS PTSUNNY   80  73  79 S6        30.00S
MOUNT PLEASANT PTSUNNY   77  73  87 CALM      30.00S
GILMER         MOSUNNY   77  75  94 CALM      30.00F
MINEOLA        MOSUNNY   79  73  83 S3        29.99F HAZE
TYLER          NOT AVBL
LONGVIEW       MOSUNNY   81  72  74 VRB3      29.98F
MARSHALL       PTSUNNY   78  73  83 CALM      30.00S
ATHENS         CLOUDY    73  72  94 S5        29.99R FOG
PALESTINE      CLOUDY    75  74  96 CALM      30.00S
JACKSONVILLE   SUNNY     80  73  80 W3        30.02R
HENDERSON      PTSUNNY   76  74  96 CALM      30.00S
NACOGDOCHES    CLOUDY    75  72  88 SW3       30.00R
LUFKIN         CLOUDY    76  73  91 SE3       30.00S FOG
$$

SUPPLEMENTAL OBSERVATIONS (CENTRAL)

CITY           SKY/WX    TMP DP  RH WIND       PRES   REMARKS
PAT MAYSE LAKE   N/A     75  70  83 SE2         N/A
GREENVILLE       N/A     81  72  74 S6          N/A
CEDAR HILL       N/A     81  70  69 S5          N/A
PALESTINE        N/A     77  73  88 S2          N/A
MCGREGOR         N/A     79  73  83 SW3         N/A
TEMPLE           N/A     81  73  78 S2          N/A
$$

SUPPLEMENTAL OBSERVATIONS (WEST)

CITY           SKY/WX    TMP DP  RH WIND       PRES   REMARKS
MILLERS CREEK    N/A     81  75  83 SW2         N/A
POSSUM KINGDOM   N/A     84  68  58 SW5         N/A
GRANBURY         N/A     81  70  69 SE5         N/A
HAMBY            N/A     79  70  73 SW8         N/A
IVIE RESERVOIR   N/A     79  70  73 S6          N/A
COLORADO BEND    N/A     81  70  69 W2          N/A
$$

SUPPLEMENTAL OBSERVATIONS (EAST)

CITY           SKY/WX    TMP DP  RH WIND       PRES   REMARKS
CLARKSVILLE      N/A     79  72  78 SE3         N/A
TEXARKANA        N/A     75  72  88 E2          N/A
LINDEN           N/A     84  73  70 NE2         N/A  HX  91
GILMER           N/A     79  72  78 SW5         N/A
HENDERSON        N/A     79  75  89 S1          N/A
N SABINE NF      N/A     79  73  83 MISG        N/A
S SABINE NF      N/A     77  73  88 S3          N/A
$$

SUPPLEMENTAL OBSERVATIONS ARE A COLLECTION OF AUTOMATED INSTRUMENTS
THAT ARE MAINTAINED BY A VARIETY OF FEDERAL AND STATE AGENCIES.
CERTAIN ELEMENTS...SUCH AS HUMIDITY VALUES AND SUSTAINED WIND
SPEEDS...MAY BE APPROXIMATED.